Regional Weather Roundup
Issued by NWS

Home | Current Version | Previous Version | Graphics & Text | Print | Product List | Glossary On
Versions: 1 2 3 4 5 6 7 8 9 10 11 12 13 14 15 16 17 18 19 20 21 22 23 24 25 26 27 28 29 30 31 32 33 34 35 36 37 38 39 40 41 42 43 44 45 46 47 48 49 50
000
ASUS43 KMPX 300710
RWRMN
WEATHER ROUNDUP FOR MINNESOTA
NATIONAL WEATHER SERVICE TWIN CITIES/CHANHASSEN MN
200 AM CDT THU MAR 30 2017


NOTE: "FAIR" INDICATES FEW OR NO CLOUDS BELOW 12,000 FEET WITH NO
SIGNIFICANT WEATHER AND/OR OBSTRUCTIONS TO VISIBILITY. N/A MEANS
CURRENT SKY AND/OR WEATHER CONDITIONS ARE NOT AVAILABLE.

MNZ060>063-068>070-300800-
   Twin Cities Metro

CITY           SKY/WX    TMP DP  RH WIND       PRES   REMARKS
TWIN CITIES    LGT RAIN  41  36  82 E15       30.04F
ST PAUL        CLOUDY    40  38  93 E8        30.06F
CRYSTAL        LGT RAIN  41  35  79 E9        30.03F
BLAINE         DRIZZLE   43  39  87 E9        30.04F
LAKEVILLE      RAIN      37  37 100 E10       30.01F
EDEN PRAIRIE   LGT RAIN  41  37  86 E12       30.01F
SOUTH ST PAUL  CLOUDY    40  38  91 E8        30.04F
LAKE ELMO      DRIZZLE   39  37  93 E7        30.06F
$$
MNZ001>005-007-008-013>017-022>024-027-028-300800-
   Northwest Minnesota

CITY           SKY/WX    TMP DP  RH WIND       PRES   REMARKS
BEMIDJI        CLEAR     32  30  92 SE6       30.05S WCI  26
HALLOCK        CLOUDY    43  39  87 S15       29.96S
ROSEAU         CLOUDY    43  36  75 S12       29.99S
WARROAD        CLOUDY    43  36  75 S7        30.00S
THIEF RVR FALL PTCLDY    39  35  86 SW12      30.03R
CROOKSTON      CLEAR     39  36  87 S13       30.02F
FOSSTON        CLEAR     36  32  87 S12       30.03S
DETROIT LAKES  CLEAR     36  36 100 S3        30.05S
MOORHEAD       CLEAR     37  36  93 S9        30.04F
PARK RAPIDS    CLEAR     35  28  75 E5        30.05S WCI  31
MAHNOMEN       FAIR      35  32  90 S7        30.03F WCI  29
$$
MNZ006-009>011-018-025>026-300800-
   North Central Minnesota

CITY           SKY/WX    TMP DP  RH WIND       PRES   REMARKS
BAUDETTE       PTCLDY    38  31  76 S8        30.02S
FLAG ISLAND    PTCLDY    34  30  86 S10       30.00R WCI  26
INTL FALLS     PTCLDY    33  26  75 SE7       30.06F WCI  27
WASKISH        PTCLDY    36  30  80 S6        30.04S
BIG FORK       CLEAR     32  27  80 SE5       30.08S WCI  27
LONGVILLE      CLEAR     30  28  93 CALM      30.08S
GRAND RAPIDS   CLOUDY    29  26  89 SE5       30.10F WCI  24
CRANE LAKE     CLEAR     27  25  93 CALM      30.12F
ORR            CLEAR     28  23  80 CALM      30.07F
COOK           CLOUDY    28  25  86 CALM      30.10F
WALKER         FAIR      32  30  91 CALM      30.07S
$$
MNZ012-019>021-037-300800-
   Northeast Minnesota

CITY           SKY/WX    TMP DP  RH WIND       PRES   REMARKS
DULUTH         CLOUDY    31  29  92 E9        30.10F WCI  23
ELY            CLOUDY    27  23  86 CALM      30.11F
HIBBING        CLOUDY    25  24  96 CALM      30.10F
EVELETH        CLOUDY    27  23  86 NE3       30.11F
DULUTH HARBOR  CLOUDY    36  32  87 NE16      30.15F
TWO HARBORS    CLOUDY    34  28  80 NE7       30.11F WCI  28
SILVER BAY     CLOUDY    30  28  93 NE7       30.13F WCI  23
GRAND MARAIS     N/A     34  25  69 NE9       30.18F WCI  27
G MARAIS ARPRT CLOUDY    27  18  69 NE7       30.14S WCI  19
$$
MNZ029>031-032-039>041-046>048-054>057-064-300800-
   West Central Minnesota

CITY           SKY/WX    TMP DP  RH WIND       PRES   REMARKS
FERGUS FALLS   CLEAR     37  37 100 CALM      30.09S
WHEATON        CLOUDY    37  36  93 CALM      30.07R
MORRIS         CLOUDY    39  37  93 CALM      30.03F
ALEXANDRIA     CLOUDY    39  37  92 SE5       30.05F
ELBOW LAKE     CLOUDY    37  37  99 CALM      30.05S
WADENA         PTCLDY    30  28  93 CALM      30.05F
GLENWOOD       CLOUDY    37  36  93 NE3       30.04F
APPLETON       CLOUDY    41  37  87 CALM      30.02F
BENSON         CLOUDY    43  37  81 E3        30.04F
ORTONVILLE     CLOUDY    39  36  87 E5        30.03F
MADISON        CLOUDY    43  39  87 E9        30.02S
WILLMAR        CLOUDY    43  37  81 E10G16    30.03F
$$
MNZ033>034-036-042>043-049>051-058-059-300800-
   Central Minnesota

CITY           SKY/WX    TMP DP  RH WIND       PRES   REMARKS
ST CLOUD       CLOUDY    38  34  85 NE6       30.05F
SAUK CENTRE    CLOUDY    37  37  97 NE3       30.05F
PAYNESVILLE    CLOUDY    41  41 100 E7        30.04F
AITKIN         CLOUDY    30  27  86 E3        30.06F
PINE RIVER     CLOUDY    30  28  93 CALM      30.10F
BRAINERD       CLOUDY    31  28  89 CALM      30.07F
STAPLES        MOCLDY    34  28  80 E3        30.06S
LONG PRAIRIE   CLOUDY    34  34 100 CALM      30.05F
LITTLE FALLS   CLOUDY    34  30  86 E3        30.06F
LITCHFIELD     CLOUDY    43  39  87 E10       30.02F
BUFFALO        DRIZZLE   40  36  86 NE8       30.05F
MAPLE LAKE     CLOUDY    41  38  91 E10       30.05F
HUTCHINSON     DRIZZLE   40  39  95 E12       30.02F
$$
MNZ037-044-045-052-053-300800-
   East Central Minnesota

CITY           SKY/WX    TMP DP  RH WIND       PRES   REMARKS
PRINCETON      CLOUDY    37  34  87 NE5       30.07F
MORA           CLOUDY    32  28  86 CALM      30.10F
CAMBRIDGE      CLOUDY    39  30  70 N5        30.06F
RUSH CITY      CLOUDY    35  31  85 NE5       30.08F WCI  31
MOOSE LAKE     CLOUDY    32  30  93 E6        30.08F WCI  26
CLOQUET        CLOUDY    32  28  86 E7        30.10F WCI  26
MCGREGOR       CLOUDY    30  28  93 E5        30.09F WCI  25
$$
MNZ071>073-080-081-089-090-097-098-300800-
   Southwest Minnesota

CITY           SKY/WX    TMP DP  RH WIND       PRES   REMARKS
MONTEVIDEO     CLOUDY    39  37  93 SE7       30.02F
GRANITE FALLS  CLOUDY    42  39  88 E8        30.02F
CANBY          CLOUDY    40  39  95 CALM      30.01F
MARSHALL       CLOUDY    39  37  92 E10       29.99F
REDWOOD FALLS  CLOUDY    40  37  89 E10       29.99F
OLIVIA         CLOUDY    39  36  87 E9        30.00F
PIPESTONE      CLOUDY    37  34  87 E8        29.93F
WINDOM         MOCLDY    37  37 100 NE15G21   29.94F
WORTHINGTON    CLOUDY    37  36  96 NE15      29.92F
JACKSON          N/A     36  36 100 E15       29.92F
TRACY          CLOUDY    39  38  98 E13       29.97F
SLAYTON        CLOUDY    36  36  98 NE14      29.94F
$$
MNZ065>067-074>077-082>085-091>093-300800-
   South Central Minnesota

CITY           SKY/WX    TMP DP  RH WIND       PRES   REMARKS
MANKATO        CLOUDY    39  36  89 E15       29.97F
NEW ULM        CLOUDY    39  37  93 E9G16     29.98F
ST JAMES       CLOUDY    39  37  93 NE12      29.96F
FAIRMONT       CLOUDY    39  35  86 E21G26    29.93S
GLENCOE        CLOUDY    40  41 100 NE7       30.00F
FARIBAULT      CLOUDY    37  37 100 NE13G20   29.98F
OWATONNA       DRIZZLE   37  36  93 NE13G21   29.96F
WASECA         DRIZZLE   39  36  87 NE15      29.97F
ALBERT LEA     LGT RAIN  36  36 100 E20       29.92S
$$
MNZ078>079-086>088-094>096-300800-
   Southeast Minnesota

CITY           SKY/WX    TMP DP  RH WIND       PRES   REMARKS
ROCHESTER      LGT RAIN  36  34  92 E25G33    29.95F
RED WING       DRIZZLE   39  36  87 E12G18    30.02F
STANTON        CLOUDY    40  37  89 E10       30.00F
DODGE CENTER   LGT RAIN  37  36  93 E23G29    29.94F
WINONA         RAIN      37  34  87 E7        30.03F
AUSTIN         CLOUDY    37  34  87 E18G26    29.91F
PRESTON        LGT RAIN  35  33  94 E16G22    29.94F WCI  25
$$
ABBREVIATIONS USED IN REMARKS
   TC - TEMPERATURES IN CELSIUS
  WCI - WIND CHILL INDEX
   HX - HEAT INDEX
  VSB - VISIBILITY
$$



USA.gov is the U.S. government's official web portal to all federal, state and local government web resources and services.